Temp
-14 -14 -14 -14 -13 -13 -13 -13 -13 -14 -13 -13 -13 -13 -13 -13 -13 -13 -13 -13 -14 -14 -14 -14 -15 -15 -16 -16 -17 -18 -18 -18
-13 -14 -14 -14 -14 -14 -13 -13 -13 -13 -13 -13 -12 -13 -13 -13 -14 -13 -13 -14 -14 -15 -15 -15 -15 -16 -17 -17 -17 -17 -17 -17
-13 -14 -14 -14 -14 -14 -14 -13 -13 -13 -13 -13 -13 -13 -13 -13 -14 -14 -14 -14 -15 -15 -15 -16 -16 -16 -16 -16 -17 -17 -17 -16
-14 -14 -14 -13 -14 -14 -13 -13 -13 -13 -13 -13 -13 -13 -13 -13 -13 -13 -13 -14 -14 -15 -15 -15 -16 -16 -16 -16 -17 -16 -16 -16
-14 -14 -13 -14 -14 -14 -14 -14 -14 -13 -13 -13 -13 -14 -14 -14 -14 -14 -14 -15 -15 -15 -15 -15 -15 -15 -16 -16 -16 -16 -16 -16
-14 -14 -14 -14 -14 -14 -14 -14 -14 -14 -14 -14 -14 -14 -14 -14 -14 -15 -15 -15 -16 -16 -16 -16 -15 -15 -16 -17 -16 -16 -16 -16
-14 -14 -14 -14 -14 -14 -14 -14 -14 -14 -14 -14 -14 -14 -15 -15 -15 -15 -15 -15 -16 -16 -16 -16 -16 -16 -16 -17 -16 -16 -16 -16
-14 -14 -14 -14 -14 -15 -15 -15 -15 -15 -14 -14 -14 -15 -15 -15 -15 -15 -15 -15 -15 -15 -15 -16 -16 -16 -16 -16 -16 -17 -16 -16
-14 -14 -14 -14 -14 -14 -14 -15 -15 -15 -15 -15 -15 -15 -15 -15 -15 -15 -15 -15 -15 -15 -15 -15 -16 -16 -16 -16 -16 -16 -16 -16
-14 -14 -14 -14 -14 -14 -14 -14 -14 -15 -15 -15 -15 -15 -15 -15 -15 -15 -15 -15 -15 -15 -15 -15 -16 -16 -16 -16 -16 -16 -16 -16
-15 -14 -14 -14 -14 -14 -14 -14 -15 -15 -15 -15 -16 -16 -16 -15 -15 -15 -16 -16 -15 -15 -15 -16 -15 -16 -16 -16 -16 -16 -16 -15
-15 -15 -15 -14 -14 -14 -14 -15 -15 -15 -15 -16 -16 -16 -15 -15 -15 -15 -15 -15 -15 -15 -15 -16 -16 -16 -15 -15 -15 -15 -15 -16
-15 -15 -15 -14 -15 -15 -15 -15 -15 -15 -16 -16 -16 -16 -16 -16 -16 -16 -15 -15 -15 -15 -16 -15 -16 -16 -15 -15 -15 -15 -15 -16
-14 -15 -15 -15 -15 -15 -15 -15 -15 -16 -16 -16 -16 -16 -16 -16 -16 -16 -15 -16 -15 -16 -15 -15 -16 -17 -16 -16 -16 -16 -15 -16
-15 -15 -15 -15 -15 -15 -15 -15 -16 -16 -16 -16 -16 -16 -16 -16 -15 -15 -16 -16 -16 -15 -16 -15 -16 -16 -16 -16 -17 -17 -17 -17
-16 -16 -15 -16 -16 -15 -16 -16 -16 -16 -16 -16 -16 -16 -15 -16 -15 -15 -16 -16 -16 -16 -16 -16 -16 -16 -17 -17 -17 -17 -17 -17
-15 -15 -15 -16 -16 -16 -16 -16 -16 -16 -16 -16 -16 -16 -16 -16 -16 -16 -16 -16 -16 -16 -16 -17 -17 -17 -17 -17 -17 -17 -17 -17
-16 -15 -15 -15 -15 -16 -17 -17 -17 -16 -16 -16 -16 -16 -16 -16 -16 -16 -16 -16 -16 -16 -17 -17 -17 -17 -17 -17 -17 -17 -17 -17
-15 -16 -16 -16 -16 -16 -17 -17 -17 -17 -17 -16 -16 -16 -15 -16 -16 -16 -16 -16 -16 -17 -17 -17 -17 -17 -17 -17 -17 -17 -17 -18
Height
5726 5725 5721 5719 5715 5716 5720 5722 5724 5725 5729 5732 5734 5738 5740 5744 5747 5750 5751 5753 5755 5757 5761 5761 5763 5764 5765 5766 5770 5774 5778 5782
5726 5726 5724 5722 5721 5720 5720 5720 5722 5724 5727 5728 5732 5735 5739 5741 5744 5745 5746 5748 5750 5752 5755 5758 5759 5760 5760 5763 5769 5773 5776 5779
5725 5725 5724 5723 5722 5722 5721 5720 5722 5721 5724 5727 5728 5731 5733 5737 5738 5739 5741 5743 5746 5749 5752 5753 5753 5756 5759 5762 5766 5769 5772 5774
5724 5723 5722 5722 5723 5722 5722 5722 5723 5723 5723 5726 5727 5728 5732 5734 5736 5738 5740 5741 5744 5747 5746 5751 5749 5755 5757 5759 5762 5764 5767 5771
5723 5722 5723 5722 5723 5725 5724 5725 5725 5725 5728 5727 5730 5730 5733 5735 5735 5738 5739 5742 5743 5744 5747 5750 5748 5752 5754 5756 5758 5761 5763 5764
5721 5722 5722 5722 5723 5724 5725 5724 5725 5726 5727 5729 5731 5733 5733 5733 5733 5737 5738 5740 5741 5742 5746 5748 5747 5748 5750 5751 5754 5755 5756 5756
5721 5722 5722 5722 5722 5722 5722 5722 5723 5724 5726 5728 5728 5729 5730 5730 5732 5732 5734 5736 5737 5741 5743 5743 5743 5742 5745 5746 5749 5749 5748 5748
5719 5719 5721 5722 5721 5721 5721 5721 5721 5722 5723 5724 5725 5727 5728 5727 5728 5732 5732 5733 5735 5735 5735 5736 5737 5738 5739 5741 5741 5740 5740 5740
5717 5718 5719 5720 5722 5721 5720 5719 5719 5720 5721 5722 5724 5724 5725 5724 5729 5730 5730 5730 5732 5730 5731 5734 5734 5733 5731 5730 5731 5732 5731 5731
5715 5716 5717 5718 5719 5720 5718 5717 5717 5718 5718 5718 5719 5721 5722 5723 5724 5726 5725 5725 5726 5726 5728 5728 5729 5727 5724 5723 5723 5722 5722 5722
5711 5713 5714 5714 5715 5715 5716 5716 5716 5715 5716 5715 5715 5716 5717 5718 5719 5719 5718 5717 5717 5720 5719 5718 5716 5715 5715 5713 5714 5712 5712 5713
5707 5708 5708 5710 5711 5711 5711 5712 5712 5712 5712 5712 5712 5712 5711 5712 5710 5710 5707 5707 5708 5708 5708 5708 5707 5706 5704 5706 5701 5705 5704 5701
5703 5703 5704 5704 5705 5707 5707 5706 5707 5707 5706 5705 5706 5704 5704 5704 5702 5701 5699 5697 5696 5695 5696 5695 5697 5697 5696 5692 5694 5697 5696 5693
5698 5699 5699 5700 5700 5701 5701 5700 5699 5699 5699 5699 5699 5699 5698 5696 5695 5694 5692 5691 5689 5688 5686 5688 5687 5687 5688 5686 5687 5689 5687 5684
5688 5690 5693 5693 5694 5694 5694 5694 5691 5692 5692 5692 5692 5691 5690 5689 5688 5687 5687 5685 5685 5684 5683 5681 5680 5680 5680 5678 5679 5678 5677 5676
5679 5683 5685 5685 5686 5687 5686 5686 5685 5685 5686 5685 5684 5683 5682 5681 5681 5680 5678 5678 5676 5676 5676 5675 5673 5671 5671 5670 5669 5667 5667 5666
5670 5673 5675 5677 5678 5677 5678 5678 5678 5677 5677 5677 5675 5674 5673 5673 5671 5670 5670 5670 5669 5667 5667 5666 5663 5664 5662 5662 5660 5658 5657 5654
5660 5661 5666 5668 5669 5669 5668 5669 5669 5670 5670 5669 5667 5666 5665 5664 5662 5660 5660 5659 5658 5658 5657 5656 5654 5653 5652 5650 5649 5646 5644 5642
5652 5653 5654 5658 5659 5660 5661 5660 5660 5659 5657 5657 5658 5657 5655 5655 5654 5652 5650 5649 5648 5647 5645 5645 5644 5642 5640 5639 5637 5634 5632 5628
Wind_Speed
4 5 8 10 8 14 24 23 21 14 18 19 18 22 27 23 26 27 26 28 28 29 29 28 27 26 23 25 27 30 29 28
5 3 3 4 6 6 8 17 24 28 26 25 25 24 24 23 26 25 29 30 30 26 26 23 22 22 23 23 23 27 29 28
7 7 5 2 1 2 4 6 5 13 22 30 30 28 29 30 26 30 32 30 29 25 21 21 21 21 23 23 26 29 30 32
7 8 7 6 4 3 4 5 6 9 13 11 12 17 20 19 16 15 16 19 21 22 23 24 23 23 23 26 28 29 31 31
6 6 6 5 3 4 6 6 7 8 11 12 14 15 16 16 13 12 13 14 17 18 18 20 22 25 26 27 29 28 29 31
6 7 6 7 5 5 5 6 7 6 6 8 10 12 12 10 9 10 11 15 16 18 20 23 22 23 25 25 28 30 33 34
9 7 8 9 9 8 7 5 5 4 4 6 7 8 10 11 13 13 14 14 15 18 19 21 26 24 27 28 31 32 32 35
12 12 11 11 12 9 8 7 7 6 7 6 5 7 9 9 11 13 14 15 18 19 21 23 25 25 27 29 33 34 35 36
15 16 14 14 12 9 10 12 10 11 11 11 12 11 12 11 14 13 15 18 21 22 22 24 25 25 25 27 32 36 42 43
17 15 14 18 17 17 16 17 13 12 15 16 16 16 16 16 18 19 21 23 25 27 27 27 30 32 33 30 33 39 48 47
20 23 20 18 19 20 19 16 14 14 14 15 15 16 18 22 23 24 23 30 31 31 30 30 33 32 35 39 40 42 34 39
17 18 20 21 22 20 17 18 19 19 17 19 21 24 25 25 30 34 36 33 30 33 38 37 35 36 36 45 49 47 36 33
23 20 20 22 21 18 16 19 20 20 22 22 24 30 30 28 28 29 27 29 35 39 28 27 29 33 29 38 48 38 40 37
27 23 17 20 21 24 23 27 25 28 28 29 28 27 28 30 32 29 28 21 18 21 19 20 26 20 26 15 21 26 34 33
23 27 25 22 21 29 27 25 29 28 27 28 27 28 29 29 29 29 28 28 22 24 25 29 28 28 27 21 24 28 34 36
22 24 27 29 26 28 25 26 32 29 25 28 34 33 31 28 29 29 29 29 29 29 29 28 28 28 28 31 33 32 37 38
31 30 28 25 25 25 28 28 32 31 33 38 43 42 38 30 30 30 31 30 31 33 31 31 30 32 32 35 36 37 40 44
30 30 26 24 24 24 27 30 33 36 36 35 34 36 35 33 32 34 34 34 35 35 34 34 34 35 36 38 40 44 46 48
31 33 34 29 25 21 29 33 35 32 31 32 33 33 35 35 37 36 35 35 36 36 38 40 40 41 41 42 45 48 48 48
Wind_Direction
5 10 25 22 14 198 218 220 217 229 229 225 223 228 204 204 217 231 226 230 237 243 245 242 247 240 212 203 199 204 202 211
306 322 35 34 62 79 196 230 214 206 223 231 236 228 220 229 221 228 232 234 242 240 238 241 228 211 204 195 203 204 213 217
286 292 296 291 11 132 108 98 169 216 221 231 242 233 230 237 217 230 234 232 226 235 217 208 197 195 195 205 212 216 220 226
276 278 278 273 242 190 155 160 151 158 169 179 187 198 194 195 190 193 193 201 204 201 190 197 189 204 209 218 224 230 234 238
269 264 267 258 245 212 167 163 177 176 188 184 195 188 192 191 187 188 182 191 191 199 206 218 212 219 221 225 232 237 243 249
247 252 254 247 229 232 216 179 174 181 182 187 197 197 196 193 193 204 205 210 214 218 238 231 233 234 238 239 242 244 249 253
245 223 234 244 232 234 254 257 238 216 218 235 229 223 215 204 204 204 212 218 225 232 230 230 239 240 242 241 245 248 251 258
237 233 225 240 237 224 227 229 242 246 247 257 260 251 248 244 244 238 238 235 233 233 235 236 239 241 244 249 253 252 253 256
243 232 237 239 233 234 246 243 234 231 235 237 236 239 249 252 252 258 256 247 256 254 252 249 247 251 255 259 260 263 255 255
229 232 244 238 240 254 254 249 254 253 238 238 243 247 255 259 263 267 264 258 259 259 254 245 252 268 267 267 263 281 273 255
244 255 262 245 246 258 259 247 249 258 260 263 258 254 255 258 261 257 268 263 263 262 257 254 254 260 270 274 283 274 261 251
237 251 251 252 259 254 256 258 258 256 259 260 259 254 259 268 272 276 257 277 272 273 262 262 267 267 268 267 266 273 245 246
230 245 255 254 256 253 259 270 267 267 258 263 267 272 276 280 286 287 290 286 277 268 273 280 285 270 272 260 254 264 259 262
250 236 249 257 254 253 251 273 266 261 260 264 265 266 269 275 278 283 284 292 292 277 273 272 269 294 285 276 265 265 268 272
244 241 233 249 266 256 255 284 267 263 265 265 267 265 266 270 277 282 283 284 279 280 278 271 271 276 279 272 266 266 266 266
244 240 250 254 248 250 261 279 260 263 264 280 285 278 274 274 275 277 281 280 278 274 275 272 275 277 280 282 284 284 280 278
262 263 256 250 247 248 259 256 258 261 275 287 286 279 274 276 278 280 282 278 276 277 276 278 279 277 279 279 281 278 277 279
264 267 253 249 259 263 248 248 256 262 270 278 269 270 271 275 277 277 277 277 271 270 274 276 275 273 278 281 282 282 282 280
265 263 270 275 265 261 255 260 267 274 275 279 273 272 279 285 284 280 278 277 276 275 277 278 279 279 281 280 279 279 278 280